Location: Chimay
(50.0486°N, 4.3171°E)
Time: 01:54:40
(UTC+00:00)

BREEZE-M DEB (TANK) - Pass Details

Date: 08 August 2020
Orbit: 332 x 12042 km, 49.7° (Epoch: 25 September)

Event Time Altitude Azimuth Distance (km) Brightness Sun altitude
Rises 20:19:09 0° 293° (WNW) 5,058 8.7 -9.7°
Reaches altitude 10° 20:24:29 10° 278° (W) 2,753 6.6 -10.4°
Maximum altitude 20:28:08 17° 237° (WSW) 1,522 4.6 -10.8°
Drops below altitude 10° 20:30:22 10° 191° (S) 1,563 4.1 -11.1°
Enters shadow 20:30:54 - 183° (S) 1,694 4.2 -11.2°
